Starlink 31000

operational
NORAD ID: 58488 Int'l Des: 2023-186 Owner: SPXS Country: US Constellation: starlink
LEOCIRCULAR

About Starlink 31000

Description loading...

Live Position

Loading 3D Globe...

Upcoming Passes

Altitude History

Altitude vs Time

uPlot chart will show altitude changes over time

Two-Line Element Set

1 58488U 23186R 26102.41292089 -.00001479 00000-0 -44230-4 0 9999
2 58488 43.0004 233.2006 0000745 213.7457 146.3347 15.27583121131049
Epoch: Apr 12, 2026 • Age: 6 hours

Current Status

Altitude 482.8 km
Velocity 7.63 km/s
Sub-Earth Point 18.47°N, 167.07°E
Launch Date Dec 3, 2023
Age 2.3 years
Type internet

Technical Details

Classification Payload
Mass 730.00 kg
Dry Mass 700.00 kg
Total Mass 730.00 kg
Length 0.30 m
Diameter 4.10 m
Span 29.00 m
Shape Box + pan
Manufacturer SPXS
Bus Type Starlink V2M
Phase Status In Orbit
Owner/State SPXS/US

Large Constellations

Loading constellations...